Time,TemperatureF,DewpointF,PressureIn,WindDirection,WindDirectionDegrees,WindSpeedMPH,WindSpeedGustMPH,Humidity,HourlyPrecipIn,Conditions,Clouds,dailyrainin,SoftwareType,DateUTC
2013-01-17 00:00:00,53.1,20.0,30.20,East,95,26.6,29.8,27,0.00,,---,0.00,VWS V14.01,2013-01-17 08:00:00,
2013-01-17 00:06:00,53.1,20.0,30.20,ENE,69,28.4,28.4,27,0.00,,---,0.00,VWS V14.01,2013-01-17 08:06:00,
2013-01-17 00:11:00,53.6,20.5,30.20,East,83,28.4,34.9,27,0.00,,---,0.00,VWS V14.01,2013-01-17 08:11:00,
2013-01-17 00:17:00,53.1,20.0,30.20,ENE,74,28.4,28.4,27,0.00,,---,0.00,VWS V14.01,2013-01-17 08:17:00,
2013-01-17 00:22:00,53.1,20.0,30.20,East,90,28.0,32.9,27,0.00,,---,0.00,VWS V14.01,2013-01-17 08:22:00,
2013-01-17 00:27:00,53.1,20.0,30.20,ESE,108,30.2,30.6,27,0.00,,---,0.00,VWS V14.01,2013-01-17 08:27:00,
2013-01-17 00:33:00,52.9,19.8,30.20,East,96,19.7,30.2,27,0.00,,---,0.00,VWS V14.01,2013-01-17 08:33:00,
2013-01-17 00:38:00,52.7,19.7,30.20,East,100,21.5,27.5,27,0.00,,---,0.00,VWS V14.01,2013-01-17 08:38:00,
2013-01-17 00:44:00,52.5,19.5,30.17,ESE,111,23.3,26.2,27,0.00,,---,0.00,VWS V14.01,2013-01-17 08:44:00,
2013-01-17 00:49:00,51.8,18.9,30.17,ESE,106,15.4,27.5,27,0.00,,---,0.00,VWS V14.01,2013-01-17 08:49:00,
2013-01-17 00:55:00,52.0,19.1,30.17,East,85,17.4,24.2,27,0.00,,---,0.00,VWS V14.01,2013-01-17 08:55:00,
2013-01-17 01:00:00,52.0,19.1,30.17,ESE,104,21.5,27.5,27,0.00,,---,0.00,VWS V14.01,2013-01-17 09:00:00,
2013-01-17 01:05:00,51.8,18.9,30.17,ESE,110,21.9,23.7,27,0.00,,---,0.00,VWS V14.01,2013-01-17 09:05:00,
2013-01-17 01:10:00,52.2,19.2,30.20,East,94,23.7,28.4,27,0.00,,---,0.00,VWS V14.01,2013-01-17 09:10:00,
2013-01-17 01:16:00,52.0,19.1,30.20,ESE,103,20.6,22.8,27,0.00,,---,0.00,VWS V14.01,2013-01-17 09:16:00,
2013-01-17 01:21:00,51.8,18.9,30.20,ENE,72,21.5,25.5,27,0.00,,---,0.00,VWS V14.01,2013-01-17 09:21:00,
2013-01-17 01:26:00,51.8,18.9,30.20,NE,55,24.6,28.0,27,0.00,,---,0.00,VWS V14.01,2013-01-17 09:26:00,
2013-01-17 01:31:00,51.8,18.9,30.20,ESE,114,25.1,26.6,27,0.00,,---,0.00,VWS V14.01,2013-01-17 09:31:00,
2013-01-17 01:36:00,52.2,19.2,30.20,East,85,21.9,32.9,27,0.00,,---,0.00,VWS V14.01,2013-01-17 09:36:00,
2013-01-17 01:41:00,52.2,19.2,30.20,ENE,72,13.2,28.0,27,0.00,,---,0.00,VWS V14.01,2013-01-17 09:41:00,
2013-01-17 01:47:00,52.2,19.2,30.20,ESE,108,19.7,26.6,27,0.00,,---,0.00,VWS V14.01,2013-01-17 09:47:00,
2013-01-17 01:52:00,52.3,19.4,30.20,East,95,26.6,27.1,27,0.00,,---,0.00,VWS V14.01,2013-01-17 09:52:00,
2013-01-17 01:57:00,52.2,19.2,30.20,SSE,151,23.7,25.7,27,0.00,,---,0.00,VWS V14.01,2013-01-17 09:57:00,
2013-01-17 02:03:00,52.9,19.8,30.20,East,97,17.4,23.7,27,0.00,,---,0.00,VWS V14.01,2013-01-17 10:03:00,
2013-01-17 02:09:00,52.5,19.5,30.20,East,98,23.3,28.0,27,0.00,,---,0.00,VWS V14.01,2013-01-17 10:09:00,
2013-01-17 02:14:00,52.5,19.5,30.20,East,93,15.9,25.1,27,0.00,,---,0.00,VWS V14.01,2013-01-17 10:14:00,
2013-01-17 02:20:00,52.5,19.5,30.20,ENE,78,23.7,26.2,27,0.00,,---,0.00,VWS V14.01,2013-01-17 10:20:00,
2013-01-17 02:25:00,52.5,19.5,30.20,ESE,102,23.3,28.9,27,0.00,,---,0.00,VWS V14.01,2013-01-17 10:25:00,
2013-01-17 02:30:00,52.5,19.5,30.20,East,101,21.9,21.9,27,0.00,,---,0.00,VWS V14.01,2013-01-17 10:30:00,
2013-01-17 02:36:00,52.3,19.4,30.20,ENE,59,22.8,25.5,27,0.00,,---,0.00,VWS V14.01,2013-01-17 10:36:00,
2013-01-17 02:42:00,52.0,19.1,30.20,East,95,23.7,25.1,27,0.00,,---,0.00,VWS V14.01,2013-01-17 10:42:00,
2013-01-17 02:47:00,51.8,18.9,30.20,ENE,74,15.9,23.7,27,0.00,,---,0.00,VWS V14.01,2013-01-17 10:47:00,
2013-01-17 02:53:00,51.8,18.9,30.20,ENE,69,28.0,28.0,27,0.00,,---,0.00,VWS V14.01,2013-01-17 10:53:00,
2013-01-17 02:58:00,51.8,18.9,30.20,East,79,23.3,24.2,27,0.00,,---,0.00,VWS V14.01,2013-01-17 10:58:00,
2013-01-17 03:03:00,51.6,20.0,30.20,ENE,76,19.2,24.2,28,0.00,,---,0.00,VWS V14.01,2013-01-17 11:03:00,
2013-01-17 03:09:00,51.8,18.9,30.20,ENE,73,17.0,24.2,27,0.00,,---,0.00,VWS V14.01,2013-01-17 11:09:00,
2013-01-17 03:15:00,51.8,18.9,30.20,East,87,22.4,22.4,27,0.00,,---,0.00,VWS V14.01,2013-01-17 11:15:00,
2013-01-17 03:20:00,51.8,18.9,30.20,ENE,72,17.4,21.0,27,0.00,,---,0.00,VWS V14.01,2013-01-17 11:20:00,
2013-01-17 03:26:00,51.1,19.5,30.20,ENE,74,22.8,27.5,28,0.00,,---,0.00,VWS V14.01,2013-01-17 11:26:00,
2013-01-17 03:31:00,50.7,19.2,30.20,NE,55,17.4,19.7,28,0.00,,---,0.00,VWS V14.01,2013-01-17 11:31:00,
2013-01-17 03:36:00,50.9,19.4,30.20,ENE,76,12.8,18.8,28,0.00,,---,0.00,VWS V14.01,2013-01-17 11:36:00,
2013-01-17 03:42:00,51.4,19.9,30.20,ENE,65,18.8,23.7,28,0.00,,---,0.00,VWS V14.01,2013-01-17 11:42:00,
2013-01-17 03:47:00,50.9,19.4,30.20,ENE,65,20.1,25.1,28,0.00,,---,0.00,VWS V14.01,2013-01-17 11:47:00,
2013-01-17 03:53:00,50.9,19.4,30.20,East,79,21.9,28.0,28,0.00,,---,0.00,VWS V14.01,2013-01-17 11:53:00,
2013-01-17 03:58:00,50.7,19.2,30.20,ENE,66,18.3,23.3,28,0.00,,---,0.00,VWS V14.01,2013-01-17 11:58:00,
2013-01-17 04:04:00,51.4,19.9,30.20,ENE,68,19.7,20.1,28,0.00,,---,0.00,VWS V14.01,2013-01-17 12:04:00,
2013-01-17 04:10:00,51.8,18.9,30.20,East,83,22.8,22.8,27,0.00,,---,0.00,VWS V14.01,2013-01-17 12:10:00,
2013-01-17 04:15:00,51.4,19.9,30.20,ENE,68,17.4,23.3,28,0.00,,---,0.00,VWS V14.01,2013-01-17 12:15:00,
2013-01-17 04:22:00,51.3,19.7,30.20,East,83,18.3,25.1,28,0.00,,---,0.00,VWS V14.01,2013-01-17 12:22:00,
2013-01-17 04:27:00,51.1,19.5,30.20,East,91,12.8,17.9,28,0.00,,---,0.00,VWS V14.01,2013-01-17 12:27:00,
2013-01-17 04:33:00,51.3,19.7,30.20,East,93,15.4,15.4,28,0.00,,---,0.00,VWS V14.01,2013-01-17 12:33:00,
2013-01-17 04:38:00,51.1,19.5,30.20,East,80,15.4,17.0,28,0.00,,---,0.00,VWS V14.01,2013-01-17 12:38:00,
2013-01-17 04:43:00,50.9,19.4,30.20,East,87,23.7,23.7,28,0.00,,---,0.00,VWS V14.01,2013-01-17 12:43:00,
2013-01-17 04:49:00,50.9,19.4,30.20,ESE,109,18.8,18.8,28,0.00,,---,0.00,VWS V14.01,2013-01-17 12:49:00,
2013-01-17 04:54:00,50.9,19.4,30.20,East,95,12.8,17.4,28,0.00,,---,0.00,VWS V14.01,2013-01-17 12:54:00,
2013-01-17 05:00:00,50.9,19.4,30.20,East,80,25.5,25.5,28,0.00,,---,0.00,VWS V14.01,2013-01-17 13:00:00,
2013-01-17 05:06:00,51.3,19.7,30.20,ENE,77,19.7,22.8,28,0.00,,---,0.00,VWS V14.01,2013-01-17 13:06:00,
2013-01-17 05:12:00,51.3,19.7,30.20,East,85,15.0,23.3,28,0.00,,---,0.00,VWS V14.01,2013-01-17 13:12:00,
2013-01-17 05:18:00,50.7,19.2,30.20,ESE,108,18.8,20.1,28,0.00,,---,0.00,VWS V14.01,2013-01-17 13:18:00,
2013-01-17 05:24:00,50.9,19.4,30.20,ENE,70,26.2,26.2,28,0.00,,---,0.00,VWS V14.01,2013-01-17 13:24:00,
2013-01-17 05:30:00,50.5,19.1,30.20,ENE,69,17.0,27.1,28,0.00,,---,0.00,VWS V14.01,2013-01-17 13:30:00,
2013-01-17 05:35:00,50.9,19.4,30.20,East,84,24.2,28.4,28,0.00,,---,0.00,VWS V14.01,2013-01-17 13:35:00,
2013-01-17 05:41:00,50.5,19.1,30.17,ENE,62,21.0,29.3,28,0.00,,---,0.00,VWS V14.01,2013-01-17 13:41:00,
2013-01-17 05:46:00,50.7,19.2,30.17,ENE,78,22.4,33.3,28,0.00,,---,0.00,VWS V14.01,2013-01-17 13:46:00,
2013-01-17 05:51:00,50.7,19.2,30.17,East,83,24.2,29.8,28,0.00,,---,0.00,VWS V14.01,2013-01-17 13:51:00,
2013-01-17 05:57:00,50.9,19.4,30.17,ENE,64,23.3,26.6,28,0.00,,---,0.00,VWS V14.01,2013-01-17 13:57:00,
2013-01-17 06:03:00,50.9,19.4,30.17,ENE,75,28.9,28.9,28,0.00,,---,0.00,VWS V14.01,2013-01-17 14:03:00,
2013-01-17 06:08:00,50.7,19.2,30.17,ENE,65,16.3,24.6,28,0.00,,---,0.00,VWS V14.01,2013-01-17 14:08:00,
2013-01-17 06:14:00,50.5,19.1,30.20,ENE,75,19.7,24.2,28,0.00,,---,0.00,VWS V14.01,2013-01-17 14:14:00,
2013-01-17 06:19:00,50.9,19.4,30.20,NE,51,19.7,28.0,28,0.00,,---,0.00,VWS V14.01,2013-01-17 14:19:00,
2013-01-17 06:25:00,51.4,19.9,30.20,ENE,73,22.4,23.3,28,0.00,,---,0.00,VWS V14.01,2013-01-17 14:25:00,
2013-01-17 06:30:00,51.6,20.0,30.20,ENE,78,17.4,26.6,28,0.00,,---,0.00,VWS V14.01,2013-01-17 14:30:00,
2013-01-17 06:36:00,51.6,20.0,30.20,East,100,15.4,20.6,28,0.00,,---,0.00,VWS V14.01,2013-01-17 14:36:00,
2013-01-17 06:41:00,51.1,19.5,30.20,East,84,15.4,22.8,28,0.00,,---,0.00,VWS V14.01,2013-01-17 14:41:00,
2013-01-17 06:46:00,50.4,18.9,30.20,East,93,20.1,25.7,28,0.00,,---,0.00,VWS V14.01,2013-01-17 14:46:00,
2013-01-17 06:52:00,50.2,18.8,30.20,East,85,16.3,17.4,28,0.00,,---,0.00,VWS V14.01,2013-01-17 14:52:00,
2013-01-17 06:57:00,50.2,18.8,30.20,NE,56,16.3,23.7,28,0.00,,---,0.00,VWS V14.01,2013-01-17 14:57:00,
2013-01-17 07:02:00,50.4,18.9,30.20,ENE,76,19.7,20.1,28,0.00,,---,0.00,VWS V14.01,2013-01-17 15:02:00,
2013-01-17 07:08:00,50.0,18.6,30.20,East,81,19.2,23.7,28,0.00,,---,0.00,VWS V14.01,2013-01-17 15:08:00,
2013-01-17 07:14:00,49.8,18.5,30.20,ENE,77,25.5,27.1,28,0.00,,---,0.00,VWS V14.01,2013-01-17 15:14:00,
2013-01-17 07:19:00,50.4,18.9,30.20,NE,55,23.7,28.9,28,0.00,,---,0.00,VWS V14.01,2013-01-17 15:19:00,
2013-01-17 07:24:00,51.6,20.0,30.20,ENE,68,27.1,29.3,28,0.00,,---,0.00,VWS V14.01,2013-01-17 15:24:00,
2013-01-17 07:29:00,52.9,19.8,30.20,ENE,76,15.9,28.0,27,0.00,,---,0.00,VWS V14.01,2013-01-17 15:29:00,
2013-01-17 07:34:00,52.9,19.8,30.20,ESE,112,23.3,24.2,27,0.00,,---,0.00,VWS V14.01,2013-01-17 15:34:00,
2013-01-17 07:40:00,52.9,19.8,30.20,East,89,24.2,29.3,27,0.00,,---,0.00,VWS V14.01,2013-01-17 15:40:00,
2013-01-17 07:45:00,53.1,20.0,30.20,East,96,22.8,32.0,27,0.00,,---,0.00,VWS V14.01,2013-01-17 15:45:00,
2013-01-17 07:50:00,53.4,20.3,30.20,East,92,22.4,31.1,27,0.00,,---,0.00,VWS V14.01,2013-01-17 15:50:00,
2013-01-17 07:56:00,54.1,20.9,30.20,ENE,69,30.6,31.1,27,0.00,,---,0.00,VWS V14.01,2013-01-17 15:56:00,
2013-01-17 08:02:00,54.0,20.8,30.20,East,80,28.4,28.4,27,0.00,,---,0.00,VWS V14.01,2013-01-17 16:02:00,
2013-01-17 08:08:00,54.3,21.1,30.20,ENE,72,31.1,31.1,27,0.00,,---,0.00,VWS V14.01,2013-01-17 16:08:00,
2013-01-17 08:14:00,54.5,21.2,30.23,East,82,32.9,32.9,27,0.00,,---,0.00,VWS V14.01,2013-01-17 16:14:00,
2013-01-17 08:20:00,54.7,21.4,30.23,ENE,74,24.2,30.6,27,0.00,,---,0.00,VWS V14.01,2013-01-17 16:20:00,
2013-01-17 08:25:00,54.9,21.5,30.23,ENE,66,36.2,36.2,27,0.00,,---,0.00,VWS V14.01,2013-01-17 16:25:00,
2013-01-17 08:31:00,55.2,21.8,30.23,East,89,26.6,34.9,27,0.00,,---,0.00,VWS V14.01,2013-01-17 16:31:00,
2013-01-17 08:37:00,55.9,21.1,30.23,East,82,28.0,35.8,26,0.00,,---,0.00,VWS V14.01,2013-01-17 16:37:00,
2013-01-17 08:43:00,56.3,21.4,30.23,ENE,64,28.0,37.6,26,0.00,,---,0.00,VWS V14.01,2013-01-17 16:43:00,
2013-01-17 08:48:00,56.3,21.4,30.23,NE,53,30.2,36.2,26,0.00,,---,0.00,VWS V14.01,2013-01-17 16:48:00,
2013-01-17 08:54:00,56.3,21.4,30.23,ENE,57,28.4,32.0,26,0.00,,---,0.00,VWS V14.01,2013-01-17 16:54:00,
2013-01-17 08:59:00,56.1,21.3,30.23,ENE,66,26.2,29.3,26,0.00,,---,0.00,VWS V14.01,2013-01-17 16:59:00,
2013-01-17 09:04:00,56.8,21.9,30.23,ENE,77,28.4,34.4,26,0.00,,---,0.00,VWS V14.01,2013-01-17 17:04:00,
2013-01-17 09:10:00,56.8,21.9,30.23,ENE,71,32.4,35.8,26,0.00,,---,0.00,VWS V14.01,2013-01-17 17:10:00,
2013-01-17 09:16:00,56.7,21.7,30.23,ENE,63,25.7,32.0,26,0.00,,---,0.00,VWS V14.01,2013-01-17 17:16:00,
2013-01-17 09:21:00,57.2,22.2,30.23,ESE,113,15.9,25.7,26,0.00,,---,0.00,VWS V14.01,2013-01-17 17:21:00,
2013-01-17 09:26:00,57.7,22.6,30.26,ENE,62,22.8,28.4,26,0.00,,---,0.00,VWS V14.01,2013-01-17 17:26:00,
2013-01-17 09:32:00,58.1,23.0,30.26,ENE,66,18.8,18.8,26,0.00,,---,0.00,VWS V14.01,2013-01-17 17:32:00,
2013-01-17 09:37:00,58.5,23.3,30.26,ENE,73,18.8,22.4,26,0.00,,---,0.00,VWS V14.01,2013-01-17 17:37:00,
2013-01-17 09:43:00,58.5,23.3,30.26,ENE,74,25.7,25.7,26,0.00,,---,0.00,VWS V14.01,2013-01-17 17:43:00,
2013-01-17 09:48:00,58.3,23.1,30.26,NE,50,19.7,25.7,26,0.00,,---,0.00,VWS V14.01,2013-01-17 17:48:00,
2013-01-17 09:54:00,58.3,23.1,30.26,SE,131,28.0,28.0,26,0.00,,---,0.00,VWS V14.01,2013-01-17 17:54:00,
2013-01-17 09:59:00,57.9,22.8,30.26,East,84,29.3,30.2,26,0.00,,---,0.00,VWS V14.01,2013-01-17 17:59:00,
2013-01-17 10:05:00,58.3,23.1,30.26,ENE,77,30.2,30.6,26,0.00,,---,0.00,VWS V14.01,2013-01-17 18:05:00,
2013-01-17 10:10:00,58.5,23.3,30.26,East,97,16.8,24.6,26,0.00,,---,0.00,VWS V14.01,2013-01-17 18:10:00,
2013-01-17 10:15:00,58.6,23.4,30.26,ESE,109,24.2,25.7,26,0.00,,---,0.00,VWS V14.01,2013-01-17 18:15:00,
2013-01-17 10:21:00,58.6,23.4,30.26,East,92,25.7,32.9,26,0.00,,---,0.00,VWS V14.01,2013-01-17 18:21:00,
2013-01-17 10:26:00,59.0,23.7,30.23,East,81,18.8,25.5,26,0.00,,---,0.00,VWS V14.01,2013-01-17 18:26:00,
2013-01-17 10:31:00,59.2,23.9,30.23,ENE,59,19.2,30.2,26,0.00,,---,0.00,VWS V14.01,2013-01-17 18:31:00,
2013-01-17 10:37:00,59.2,23.9,30.23,NE,55,21.5,28.0,26,0.00,,---,0.00,VWS V14.01,2013-01-17 18:37:00,
2013-01-17 10:43:00,59.4,24.0,30.23,ENE,65,23.3,25.5,26,0.00,,---,0.00,VWS V14.01,2013-01-17 18:43:00,
2013-01-17 10:48:00,59.9,24.5,30.23,ENE,69,23.7,24.6,26,0.00,,---,0.00,VWS V14.01,2013-01-17 18:48:00,
2013-01-17 10:53:00,59.5,24.2,30.23,ENE,76,26.2,35.3,26,0.00,,---,0.00,VWS V14.01,2013-01-17 18:53:00,
2013-01-17 10:59:00,59.5,24.2,30.23,ENE,65,30.2,38.9,26,0.00,,---,0.00,VWS V14.01,2013-01-17 18:59:00,
2013-01-17 11:05:00,59.5,24.2,30.23,East,86,30.2,41.6,26,0.00,,---,0.00,VWS V14.01,2013-01-17 19:05:00,
2013-01-17 11:10:00,59.9,24.5,30.23,East,83,32.9,32.9,26,0.00,,---,0.00,VWS V14.01,2013-01-17 19:10:00,
2013-01-17 11:16:00,60.4,25.0,30.23,NE,50,27.5,36.2,26,0.00,,---,0.00,VWS V14.01,2013-01-17 19:16:00,
2013-01-17 11:21:00,60.4,25.0,30.23,ENE,72,23.3,25.5,26,0.00,,---,0.00,VWS V14.01,2013-01-17 19:21:00,
2013-01-17 11:26:00,61.0,24.0,30.20,East,84,26.6,26.6,24,0.00,,---,0.00,VWS V14.01,2013-01-17 19:26:00,
2013-01-17 11:32:00,61.3,24.3,30.20,East,84,19.2,30.6,24,0.00,,---,0.00,VWS V14.01,2013-01-17 19:32:00,
2013-01-17 11:38:00,61.9,24.7,30.20,ESE,122,24.2,24.2,24,0.00,,---,0.00,VWS V14.01,2013-01-17 19:38:00,
2013-01-17 11:43:00,61.3,24.3,30.20,ESE,105,19.2,34.9,24,0.00,,---,0.00,VWS V14.01,2013-01-17 19:43:00,
2013-01-17 11:49:00,62.1,24.9,30.20,East,92,18.3,25.7,24,0.00,,---,0.00,VWS V14.01,2013-01-17 19:49:00,
2013-01-17 11:54:00,61.3,24.3,30.20,ENE,76,22.8,30.2,24,0.00,,---,0.00,VWS V14.01,2013-01-17 19:54:00,
2013-01-17 11:59:00,61.7,24.6,30.20,ENE,72,25.7,29.8,24,0.00,,---,0.00,VWS V14.01,2013-01-17 19:59:00,
2013-01-17 12:05:00,61.9,24.7,30.20,East,89,23.3,23.3,24,0.00,,---,0.00,VWS V14.01,2013-01-17 20:05:00,
2013-01-17 12:10:00,61.7,24.6,30.20,ENE,77,13.2,26.6,24,0.00,,---,0.00,VWS V14.01,2013-01-17 20:10:00,
2013-01-17 12:16:00,61.3,24.3,30.20,East,85,17.4,25.5,24,0.00,,---,0.00,VWS V14.01,2013-01-17 20:16:00,
2013-01-17 12:22:00,62.1,24.9,30.20,ENE,63,13.2,22.4,24,0.00,,---,0.00,VWS V14.01,2013-01-17 20:22:00,
2013-01-17 12:28:00,61.9,24.7,30.20,East,89,25.1,25.1,24,0.00,,---,0.00,VWS V14.01,2013-01-17 20:28:00,
2013-01-17 12:33:00,61.9,24.7,30.20,East,90,16.8,27.5,24,0.00,,---,0.00,VWS V14.01,2013-01-17 20:33:00,
2013-01-17 12:38:00,62.1,24.9,30.20,SE,129,20.1,20.1,24,0.00,,---,0.00,VWS V14.01,2013-01-17 20:38:00,
2013-01-17 12:44:00,62.2,25.0,30.20,ENE,70,19.2,21.0,24,0.00,,---,0.00,VWS V14.01,2013-01-17 20:44:00,
2013-01-17 12:49:00,62.2,25.0,30.20,NE,54,12.8,24.2,24,0.00,,---,0.00,VWS V14.01,2013-01-17 20:49:00,
2013-01-17 12:54:00,62.6,25.3,30.20,ESE,105,15.0,25.7,24,0.00,,---,0.00,VWS V14.01,2013-01-17 20:54:00,
2013-01-17 13:01:00,62.4,25.2,30.20,East,91,19.2,23.7,24,0.00,,---,0.00,VWS V14.01,2013-01-17 21:01:00,
2013-01-17 13:06:00,62.4,25.2,30.20,SE,125,19.7,22.8,24,0.00,,---,0.00,VWS V14.01,2013-01-17 21:06:00,
2013-01-17 13:11:00,62.6,25.3,30.17,ESE,112,19.7,25.7,24,0.00,,---,0.00,VWS V14.01,2013-01-17 21:11:00,
2013-01-17 13:16:00,62.2,25.0,30.17,East,84,18.3,26.6,24,0.00,,---,0.00,VWS V14.01,2013-01-17 21:16:00,
2013-01-17 13:22:00,62.1,24.9,30.17,ESE,103,16.3,25.5,24,0.00,,---,0.00,VWS V14.01,2013-01-17 21:22:00,
2013-01-17 13:27:00,61.9,24.7,30.17,SE,128,25.5,25.5,24,0.00,,---,0.00,VWS V14.01,2013-01-17 21:27:00,
2013-01-17 13:32:00,62.2,25.0,30.17,ESE,116,24.2,26.6,24,0.00,,---,0.00,VWS V14.01,2013-01-17 21:32:00,
2013-01-17 13:38:00,62.1,24.9,30.17,ESE,123,25.1,25.1,24,0.00,,---,0.00,VWS V14.01,2013-01-17 21:38:00,
2013-01-17 13:43:00,61.7,24.6,30.17,ESE,109,25.1,25.1,24,0.00,,---,0.00,VWS V14.01,2013-01-17 21:43:00,
2013-01-17 13:49:00,61.9,24.7,30.17,ESE,110,22.8,23.3,24,0.00,,---,0.00,VWS V14.01,2013-01-17 21:49:00,
2013-01-17 13:54:00,61.9,24.7,30.17,East,92,17.4,19.7,24,0.00,,---,0.00,VWS V14.01,2013-01-17 21:54:00,
2013-01-17 13:59:00,61.7,24.6,30.17,SE,130,15.4,21.9,24,0.00,,---,0.00,VWS V14.01,2013-01-17 21:59:00,
2013-01-17 14:05:00,61.7,24.6,30.17,ESE,104,17.9,24.6,24,0.00,,---,0.00,VWS V14.01,2013-01-17 22:05:00,
2013-01-17 14:11:00,61.9,24.7,30.17,ESE,112,19.2,19.2,24,0.00,,---,0.00,VWS V14.01,2013-01-17 22:11:00,
2013-01-17 14:16:00,61.7,24.6,30.17,ESE,120,15.4,24.2,24,0.00,,---,0.00,VWS V14.01,2013-01-17 22:16:00,
2013-01-17 14:22:00,61.5,24.4,30.17,East,87,19.7,24.2,24,0.00,,---,0.00,VWS V14.01,2013-01-17 22:22:00,
2013-01-17 14:27:00,61.2,24.1,30.17,East,97,13.6,21.0,24,0.00,,---,0.00,VWS V14.01,2013-01-17 22:27:00,
2013-01-17 14:32:00,61.3,24.3,30.17,ESE,108,23.7,23.7,24,0.00,,---,0.00,VWS V14.01,2013-01-17 22:32:00,
2013-01-17 14:38:00,61.3,24.3,30.17,East,88,19.7,21.9,24,0.00,,---,0.00,VWS V14.01,2013-01-17 22:38:00,
2013-01-17 14:44:00,61.0,24.0,30.17,East,96,20.6,20.6,24,0.00,,---,0.00,VWS V14.01,2013-01-17 22:44:00,
2013-01-17 14:49:00,60.8,23.8,30.17,East,92,25.7,25.7,24,0.00,,---,0.00,VWS V14.01,2013-01-17 22:49:00,
2013-01-17 14:55:00,60.6,25.1,30.17,East,91,21.9,21.9,26,0.00,,---,0.00,VWS V14.01,2013-01-17 22:55:00,
2013-01-17 15:01:00,60.6,25.1,30.17,ESE,110,11.9,22.8,26,0.00,,---,0.00,VWS V14.01,2013-01-17 23:01:00,
2013-01-17 15:07:00,60.4,25.0,30.17,NE,55,13.2,13.2,26,0.00,,---,0.00,VWS V14.01,2013-01-17 23:07:00,
2013-01-17 15:12:00,60.3,24.8,30.17,East,98,23.7,23.7,26,0.00,,---,0.00,VWS V14.01,2013-01-17 23:12:00,
2013-01-17 15:18:00,60.1,24.6,30.17,ESE,106,17.4,19.7,26,0.00,,---,0.00,VWS V14.01,2013-01-17 23:18:00,
2013-01-17 15:23:00,59.9,24.5,30.17,ESE,103,11.4,17.4,26,0.00,,---,0.00,VWS V14.01,2013-01-17 23:23:00,
2013-01-17 15:28:00,59.7,24.3,30.17,ESE,118,8.7,16.8,26,0.00,,---,0.00,VWS V14.01,2013-01-17 23:28:00,
2013-01-17 15:34:00,59.4,24.0,30.17,East,88,15.0,19.2,26,0.00,,---,0.00,VWS V14.01,2013-01-17 23:34:00,
2013-01-17 15:41:00,59.2,23.9,30.17,ENE,66,15.9,15.9,26,0.00,,---,0.00,VWS V14.01,2013-01-17 23:41:00,
2013-01-17 15:46:00,58.6,23.4,30.17,East,84,17.0,17.0,26,0.00,,---,0.00,VWS V14.01,2013-01-17 23:46:00,
2013-01-17 15:52:00,58.5,23.3,30.17,ENE,71,12.8,16.3,26,0.00,,---,0.00,VWS V14.01,2013-01-17 23:52:00,
2013-01-17 15:58:00,58.1,23.0,30.20,East,82,10.1,22.4,26,0.00,,---,0.00,VWS V14.01,2013-01-17 23:58:00,
2013-01-17 16:04:00,57.7,22.6,30.20,ENE,67,19.7,19.7,26,0.00,,---,0.00,VWS V14.01,2013-01-18 00:04:00,
2013-01-17 16:09:00,57.6,22.5,30.20,ENE,60,10.5,17.4,26,0.00,,---,0.00,VWS V14.01,2013-01-18 00:09:00,
2013-01-17 16:14:00,57.2,22.2,30.20,ENE,73,10.1,17.9,26,0.00,,---,0.00,VWS V14.01,2013-01-18 00:14:00,
2013-01-17 16:20:00,56.8,21.9,30.20,ENE,66,11.4,11.4,26,0.00,,---,0.00,VWS V14.01,2013-01-18 00:20:00,
2013-01-17 16:26:00,56.5,21.6,30.20,NNE,19,12.3,12.3,26,0.00,,---,0.00,VWS V14.01,2013-01-18 00:26:00,
2013-01-17 16:32:00,56.1,21.3,30.20,NNE,24,8.7,8.7,26,0.00,,---,0.00,VWS V14.01,2013-01-18 00:32:00,
2013-01-17 16:38:00,55.6,20.8,30.20,North,0,10.1,13.2,26,0.00,,---,0.00,VWS V14.01,2013-01-18 00:38:00,
2013-01-17 16:43:00,55.0,21.7,30.20,NNE,30,6.3,8.7,27,0.00,,---,0.00,VWS V14.01,2013-01-18 00:43:00,
2013-01-17 16:49:00,54.7,21.4,30.20,North,5,6.3,6.3,27,0.00,,---,0.00,VWS V14.01,2013-01-18 00:49:00,
2013-01-17 16:54:00,54.0,20.8,30.20,ENE,62,6.3,6.3,27,0.00,,---,0.00,VWS V14.01,2013-01-18 00:54:00,
2013-01-17 17:00:00,53.2,20.1,30.20,NE,36,7.6,8.7,27,0.00,,---,0.00,VWS V14.01,2013-01-18 01:00:00,
2013-01-17 17:05:00,52.9,19.8,30.20,NE,46,10.1,10.1,27,0.00,,---,0.00,VWS V14.01,2013-01-18 01:05:00,
2013-01-17 17:10:00,52.5,19.5,30.20,NNE,22,7.6,11.0,27,0.00,,---,0.00,VWS V14.01,2013-01-18 01:10:00,
2013-01-17 17:16:00,51.8,18.9,30.20,NNE,27,7.6,11.0,27,0.00,,---,0.00,VWS V14.01,2013-01-18 01:16:00,
2013-01-17 17:22:00,51.4,19.9,30.20,NE,41,7.6,8.1,28,0.00,,---,0.00,VWS V14.01,2013-01-18 01:22:00,
2013-01-17 17:27:00,51.1,19.5,30.23,North,1,7.6,8.7,28,0.00,,---,0.00,VWS V14.01,2013-01-18 01:27:00,
2013-01-17 17:33:00,50.9,19.4,30.23,NNE,29,3.6,5.8,28,0.00,,---,0.00,VWS V14.01,2013-01-18 01:33:00,
2013-01-17 17:38:00,50.9,19.4,30.23,NNE,17,9.2,11.0,28,0.00,,---,0.00,VWS V14.01,2013-01-18 01:38:00,
2013-01-17 17:43:00,50.7,19.2,30.23,North,353,8.1,8.1,28,0.00,,---,0.00,VWS V14.01,2013-01-18 01:43:00,
2013-01-17 17:49:00,50.5,19.1,30.23,North,5,11.0,15.4,28,0.00,,---,0.00,VWS V14.01,2013-01-18 01:49:00,
2013-01-17 17:54:00,50.4,18.9,30.23,North,1,8.3,10.5,28,0.00,,---,0.00,VWS V14.01,2013-01-18 01:54:00,
2013-01-17 17:59:00,50.4,18.9,30.23,North,9,14.1,14.1,28,0.00,,---,0.00,VWS V14.01,2013-01-18 01:59:00,
2013-01-17 18:05:00,50.4,18.9,30.23,North,0,8.7,8.7,28,0.00,,---,0.00,VWS V14.01,2013-01-18 02:05:00,
2013-01-17 18:10:00,50.2,18.8,30.23,North,353,13.2,15.4,28,0.00,,---,0.00,VWS V14.01,2013-01-18 02:10:00,
2013-01-17 18:15:00,50.7,19.2,30.23,NNE,24,8.7,12.8,28,0.00,,---,0.00,VWS V14.01,2013-01-18 02:15:00,
2013-01-17 18:21:00,50.9,19.4,30.23,North,1,9.6,10.1,28,0.00,,---,0.00,VWS V14.01,2013-01-18 02:21:00,
2013-01-17 18:26:00,50.7,19.2,30.23,North,5,6.3,10.1,28,0.00,,---,0.00,VWS V14.01,2013-01-18 02:26:00,
2013-01-17 18:32:00,50.0,18.6,30.23,North,5,8.3,8.7,28,0.00,,---,0.00,VWS V14.01,2013-01-18 02:32:00,
2013-01-17 18:37:00,50.0,18.6,30.23,NNE,12,8.1,10.5,28,0.00,,---,0.00,VWS V14.01,2013-01-18 02:37:00,
2013-01-17 18:43:00,49.8,18.5,30.23,North,10,11.0,11.0,28,0.00,,---,0.00,VWS V14.01,2013-01-18 02:43:00,
2013-01-17 18:48:00,49.8,18.5,30.23,NNE,28,4.0,5.8,28,0.00,,---,0.00,VWS V14.01,2013-01-18 02:48:00,
2013-01-17 18:54:00,49.5,18.1,30.23,NNE,33,6.3,8.7,28,0.00,,---,0.00,VWS V14.01,2013-01-18 02:54:00,
2013-01-17 18:59:00,49.3,18.0,30.23,NNE,14,3.6,5.8,28,0.00,,---,0.00,VWS V14.01,2013-01-18 02:59:00,
2013-01-17 19:05:00,49.3,18.0,30.23,North,10,10.5,10.5,28,0.00,,---,0.00,VWS V14.01,2013-01-18 03:05:00,
2013-01-17 19:10:00,49.3,18.0,30.23,North,9,8.3,10.5,28,0.00,,---,0.00,VWS V14.01,2013-01-18 03:10:00,
2013-01-17 19:16:00,49.6,18.3,30.23,North,357,10.1,10.1,28,0.00,,---,0.00,VWS V14.01,2013-01-18 03:16:00,
2013-01-17 19:21:00,49.5,18.1,30.23,NNW,343,8.1,8.7,28,0.00,,---,0.00,VWS V14.01,2013-01-18 03:21:00,
2013-01-17 19:27:00,49.3,18.0,30.23,North,0,11.0,12.8,28,0.00,,---,0.00,VWS V14.01,2013-01-18 03:27:00,
2013-01-17 19:32:00,49.8,18.5,30.23,North,357,10.1,12.3,28,0.00,,---,0.00,VWS V14.01,2013-01-18 03:32:00,
2013-01-17 19:38:00,50.2,18.8,30.23,North,8,8.7,12.8,28,0.00,,---,0.00,VWS V14.01,2013-01-18 03:38:00,
2013-01-17 19:43:00,50.2,18.8,30.23,North,3,12.8,16.8,28,0.00,,---,0.00,VWS V14.01,2013-01-18 03:43:00,
2013-01-17 19:49:00,50.0,18.6,30.23,NE,35,12.3,14.1,28,0.00,,---,0.00,VWS V14.01,2013-01-18 03:49:00,
2013-01-17 19:55:00,49.8,18.5,30.23,North,3,12.8,13.2,28,0.00,,---,0.00,VWS V14.01,2013-01-18 03:55:00,
2013-01-17 20:00:00,49.5,18.1,30.23,NNE,17,10.1,13.2,28,0.00,,---,0.00,VWS V14.01,2013-01-18 04:00:00,
2013-01-17 20:06:00,49.1,17.8,30.23,NE,48,5.4,6.3,28,0.00,,---,0.00,VWS V14.01,2013-01-18 04:06:00,
2013-01-17 20:11:00,48.9,17.7,30.20,NNE,15,13.2,13.2,28,0.00,,---,0.00,VWS V14.01,2013-01-18 04:11:00,
2013-01-17 20:16:00,48.9,17.7,30.20,North,9,11.0,12.8,28,0.00,,---,0.00,VWS V14.01,2013-01-18 04:16:00,
2013-01-17 20:22:00,49.5,18.1,30.20,NNE,18,10.5,13.2,28,0.00,,---,0.00,VWS V14.01,2013-01-18 04:22:00,
2013-01-17 20:28:00,49.6,18.3,30.23,North,3,11.0,12.3,28,0.00,,---,0.00,VWS V14.01,2013-01-18 04:28:00,
2013-01-17 20:33:00,49.8,18.5,30.23,NNE,29,12.8,16.3,28,0.00,,---,0.00,VWS V14.01,2013-01-18 04:33:00,
2013-01-17 20:39:00,49.5,18.1,30.23,NNE,27,10.1,10.1,28,0.00,,---,0.00,VWS V14.01,2013-01-18 04:39:00,
2013-01-17 20:44:00,49.1,17.8,30.23,North,3,9.2,13.2,28,0.00,,---,0.00,VWS V14.01,2013-01-18 04:44:00,
2013-01-17 20:49:00,49.1,17.8,30.23,ENE,74,6.7,8.7,28,0.00,,---,0.00,VWS V14.01,2013-01-18 04:49:00,
2013-01-17 20:55:00,48.6,17.4,30.23,NE,42,5.8,8.7,28,0.00,,---,0.00,VWS V14.01,2013-01-18 04:55:00,
2013-01-17 21:01:00,48.2,17.0,30.23,ENE,62,8.1,8.1,28,0.00,,---,0.00,VWS V14.01,2013-01-18 05:01:00,
2013-01-17 21:03:00,48.2,17.0,30.23,ENE,67,8.1,8.1,28,0.00,,---,0.00,VWS V14.01,2013-01-18 05:03:00,
2013-01-17 21:04:00,48.0,16.9,30.23,NE,56,8.3,8.7,28,0.00,,---,0.00,VWS V14.01,2013-01-18 05:04:00,
2013-01-17 21:10:00,47.8,16.7,30.23,NE,50,8.3,10.1,28,0.00,,---,0.00,VWS V14.01,2013-01-18 05:10:00,
2013-01-17 21:15:00,47.8,16.7,30.23,ENE,59,7.6,8.7,28,0.00,,---,0.00,VWS V14.01,2013-01-18 05:15:00,
2013-01-17 21:20:00,47.7,16.6,30.23,NE,51,6.3,6.3,28,0.00,,---,0.00,VWS V14.01,2013-01-18 05:20:00,
2013-01-17 21:25:00,47.7,16.6,30.23,ENE,70,7.2,10.5,28,0.00,,---,0.00,VWS V14.01,2013-01-18 05:25:00,
2013-01-17 21:30:00,47.7,16.6,30.23,ENE,64,3.1,6.3,28,0.00,,---,0.00,VWS V14.01,2013-01-18 05:30:00,
2013-01-17 21:36:00,47.3,16.3,30.23,ENE,70,0.0,2.7,28,0.00,,---,0.00,VWS V14.01,2013-01-18 05:36:00,
2013-01-17 21:41:00,47.1,16.1,30.23,NE,36,2.7,3.1,28,0.00,,---,0.00,VWS V14.01,2013-01-18 05:41:00,
2013-01-17 21:47:00,46.8,15.8,30.23,ENE,69,4.9,4.9,28,0.00,,---,0.00,VWS V14.01,2013-01-18 05:47:00,
2013-01-17 21:52:00,46.2,16.5,30.23,NE,55,3.6,4.0,30,0.00,,---,0.00,VWS V14.01,2013-01-18 05:52:00,
2013-01-17 21:58:00,46.0,16.4,30.23,NE,53,6.3,8.3,30,0.00,,---,0.00,VWS V14.01,2013-01-18 05:58:00,
2013-01-17 22:03:00,46.2,16.5,30.23,East,81,6.3,8.3,30,0.00,,---,0.00,VWS V14.01,2013-01-18 06:03:00,
2013-01-17 22:09:00,46.8,15.8,30.23,East,99,6.3,7.6,28,0.00,,---,0.00,VWS V14.01,2013-01-18 06:09:00,
2013-01-17 22:14:00,46.9,16.0,30.23,SE,124,5.4,7.6,28,0.00,,---,0.00,VWS V14.01,2013-01-18 06:14:00,
2013-01-17 22:20:00,46.4,15.5,30.23,SE,141,7.2,10.5,28,0.00,,---,0.00,VWS V14.01,2013-01-18 06:20:00,
2013-01-17 22:25:00,46.4,15.5,30.23,ENE,62,8.3,8.3,28,0.00,,---,0.00,VWS V14.01,2013-01-18 06:25:00,
2013-01-17 22:31:00,46.8,15.8,30.23,NE,47,8.7,10.1,28,0.00,,---,0.00,VWS V14.01,2013-01-18 06:31:00,
2013-01-17 22:36:00,46.9,16.0,30.23,ENE,60,8.3,11.4,28,0.00,,---,0.00,VWS V14.01,2013-01-18 06:36:00,
2013-01-17 22:42:00,46.9,16.0,30.23,NE,44,8.7,10.5,28,0.00,,---,0.00,VWS V14.01,2013-01-18 06:42:00,
2013-01-17 22:47:00,47.3,16.3,30.23,NE,54,13.2,13.2,28,0.00,,---,0.00,VWS V14.01,2013-01-18 06:47:00,
2013-01-17 22:53:00,47.5,16.4,30.23,ENE,58,12.3,12.8,28,0.00,,---,0.00,VWS V14.01,2013-01-18 06:53:00,
2013-01-17 22:58:00,48.0,16.9,30.23,NE,52,14.1,15.4,28,0.00,,---,0.00,VWS V14.01,2013-01-18 06:58:00,
2013-01-17 23:04:00,48.4,17.2,30.23,ENE,62,12.8,15.4,28,0.00,,---,0.00,VWS V14.01,2013-01-18 07:04:00,
2013-01-17 23:10:00,48.0,16.9,30.23,ENE,65,11.0,16.3,28,0.00,,---,0.00,VWS V14.01,2013-01-18 07:10:00,
2013-01-17 23:16:00,47.8,16.7,30.23,ENE,71,8.7,12.8,28,0.00,,---,0.00,VWS V14.01,2013-01-18 07:16:00,
2013-01-17 23:21:00,47.7,16.6,30.23,NE,42,13.2,13.2,28,0.00,,---,0.00,VWS V14.01,2013-01-18 07:21:00,
2013-01-17 23:26:00,47.5,16.4,30.23,NE,44,8.1,9.6,28,0.00,,---,0.00,VWS V14.01,2013-01-18 07:26:00,
2013-01-17 23:31:00,47.7,16.6,30.23,NNE,28,12.3,15.0,28,0.00,,---,0.00,VWS V14.01,2013-01-18 07:31:00,
2013-01-17 23:37:00,48.7,17.5,30.23,NE,34,8.7,13.2,28,0.00,,---,0.00,VWS V14.01,2013-01-18 07:37:00,
2013-01-17 23:43:00,48.7,17.5,30.23,North,3,13.2,13.2,28,0.00,,---,0.00,VWS V14.01,2013-01-18 07:43:00,
2013-01-17 23:49:00,48.2,17.0,30.23,ENE,75,8.1,9.2,28,0.00,,---,0.00,VWS V14.01,2013-01-18 07:49:00,
2013-01-17 23:55:00,47.5,16.4,30.23,ENE,72,8.1,11.0,28,0.00,,---,0.00,VWS V14.01,2013-01-18 07:55:00,